Location: Zagreb
(45.8000°N, 16.0000°E)
Time: 09:31:45
(UTC+02:00)

X-37B - Pass Details

Date: 05 July 2022
Orbit: 328 x 343 km, 45.0° (Epoch: 12 August)

Event Time Altitude Azimuth Distance (km) Brightness Sun altitude
Rises 22:42:05 0° 277° (W) 2,091 4.9 -14.6°
Reaches altitude 10° 22:44:08 10° 270° (W) 1,257 3.6 -14.8°
Maximum altitude 22:46:49 40° 198° (SSW) 502 0.8 -15.0°
Enters shadow 22:47:01 39° 185° (S) 510 0.8 -15.1°
